[[{"header":{"parameterUnit":"m.s-1","parameterCategory":1,"la1":30.2992,"la2":30.254,"lo1":-89.0895,"lo2":-89.0443,"dy":0.0025,"dx":0.0025,"nx":19,"ny":19,"refTime":"2026-03-27T03:00:00:Z","depth":0,"parameterNumber":2,"parameterNumberName":"U-component_of_WINDS"},"data":[0,0,0,-1.1232,-1.1232,-1.1244,-1.1244,-1.1271,-1.1271,0,0,0,0,0,0,0,0,0,0,0,-1.1236,-1.1236,-1.1232,-1.1232,-1.1244,-1.1244,-1.127,-1.1271,0,0,0,0,0,0,0,0,0,0,0,-1.1236,-1.1236,-1.1237,-1.1233,-1.1244,-1.1244,-1.127,-1.1258,0,0,0,0,0,0,0,0,0,0,-1.1244,-1.1255,-1.1236,-1.1237,-1.1233,-1.1244,-1.1244,-1.1257,-1.1258,-1.127,0,-1.1283,0,-1.1277,-1.1273,-1.1274,0,0,0,-1.1227,-1.1254,-1.125,-1.1237,-1.1233,-1.1244,-1.1237,-1.1257,-1.1259,-1.1273,-1.1283,-1.1284,-1.1278,-1.1274,-1.1274,-1.1361,-1.1362,0,0,-1.1227,-1.1242,-1.1249,-1.1252,-1.1251,-1.1237,-1.1238,-1.1258,-1.1271,-1.1284,-1.1285,-1.1278,-1.1274,-1.1274,-1.1361,-1.1362,0,0,0,-1.1228,-1.1242,-1.1237,-1.1251,-1.1252,-1.1237,-1.1238,-1.127,-1.1267,-1.1285,-1.1279,-1.1274,-1.1275,-1.136,-1.1361,-1.1409,0,0,0,-1.1228,-1.1243,-1.1237,-1.1247,-1.1252,-1.1261,-1.125,-1.1266,-1.1268,-1.1279,-1.1274,-1.1275,-1.1359,-1.1361,-1.1406,-1.143,0,0,0,-1.1233,-1.1243,-1.1248,-1.1248,-1.1253,-1.1261,-1.1259,-1.1266,-1.1265,-1.1274,-1.1275,-1.1359,-1.136,-1.1404,-1.1426,-1.1458,0,0,0,-1.1243,-1.1291,-1.1249,-1.1299,-1.1253,-1.129,-1.1259,-1.1285,-1.1299,-1.1274,-1.1359,-1.1361,-1.1403,-1.1423,-1.1456,-1.1489,-1.1504,0,0,-1.1312,-1.1299,-1.1328,-1.1291,-1.1339,-1.1287,-1.1342,-1.134,-1.1326,-1.135,-1.1352,-1.1407,-1.1426,-1.1458,-1.1582,-1.1594,0,0,0,-1.1355,-1.1376,-1.1385,-1.1399,-1.1397,-1.1398,-1.1386,-1.1384,-1.1404,-1.1342,-1.1427,-1.1437,-1.1455,-1.1471,-1.1481,-1.1496,-1.1368,-1.1368,-1.1368,-1.1477,-1.1456,-1.1502,-1.1483,-1.1496,-1.1481,-1.149,-1.1486,-1.1462,-1.1483,-1.149,-1.1568,-1.1587,-1.1594,-1.161,-1.1505,-1.1505,-1.1506,-1.1506,-1.1577,-1.1604,-1.1569,-1.1601,-1.1579,-1.1606,-1.1594,-1.1575,-1.1597,-1.1561,-1.1576,-1.1539,-1.1608,-1.1621,-1.1509,-1.1508,-1.1508,-1.1508,-1.1507,-1.1656,-1.1665,-1.1662,-1.1678,-1.1693,-1.1671,-1.1693,-1.1672,-1.1652,-1.1667,-1.1673,-1.1672,-1.167,-1.1671,-1.1671,-1.1672,-1.1672,-1.1672,-1.1672,-1.174,-1.1734,-1.1756,-1.1757,-1.1762,-1.1766,-1.1751,-1.1756,-1.1756,-1.1738,-1.1738,-1.1713,-1.1618,-1.1596,-1.1676,-1.1676,-1.1675,-1.1675,-1.1674,-1.1852,-1.1822,-1.1856,-1.1861,-1.186,-1.1876,-1.1848,-1.1859,-1.1859,-1.1871,-1.1841,-1.1774,-1.1761,-1.1752,-1.1734,-1.1845,-1.1845,-1.1845,-1.1845,-1.192,-1.1909,-1.1938,-1.1948,-1.1954,-1.1931,-1.197,-1.1958,-1.1941,-1.194,-1.192,-1.1893,-1.1885,-1.1876,-1.1865,-1.1847,-1.1985,-1.1985,-1.1985,-1.1988,-1.1977,-1.2014,-1.1996,-1.1994,-1.1992,-1.2028,-1.204,-1.2015,-1.1991,-1.1939,-1.1933,-1.1889,-1.1875,-1.1853,-1.1836,-1.1803,0,0]},{"header":{"parameterUnit":"m.s-1","parameterCategory":1,"la1":30.2992,"la2":30.254,"lo1":-89.0895,"lo2":-89.0443,"dy":0.0025,"dx":0.0025,"nx":19,"ny":19,"refTime":"2026-03-27T03:00:00:Z","depth":0,"parameterNumber":3,"parameterNumberName":"V-component_of_WINDS"},"data":[0,0,0,-8.288,-8.2884,-8.3056,-8.3056,-8.3284,-8.3286,0,0,0,0,0,0,0,0,0,0,0,-8.2837,-8.2838,-8.2879,-8.2884,-8.3056,-8.3056,-8.3283,-8.3286,0,0,0,0,0,0,0,0,0,0,0,-8.2836,-8.2838,-8.284,-8.2885,-8.3056,-8.3057,-8.3283,-8.3149,0,0,0,0,0,0,0,0,0,0,-8.2981,-8.2949,-8.2837,-8.284,-8.2886,-8.3056,-8.3057,-8.3143,-8.3158,-8.321,0,-8.3261,0,-8.3278,-8.3302,-8.3303,0,0,0,-8.2877,-8.2937,-8.2977,-8.2841,-8.2887,-8.3055,-8.2976,-8.3151,-8.3168,-8.323,-8.3265,-8.3273,-8.3282,-8.3303,-8.3304,-8.3639,-8.3641,0,0,-8.2867,-8.287,-8.2965,-8.2988,-8.2966,-8.2971,-8.2982,-8.3161,-8.3198,-8.3265,-8.3278,-8.3285,-8.3305,-8.3307,-8.3637,-8.3639,0,0,0,-8.2845,-8.2864,-8.2899,-8.2979,-8.301,-8.2976,-8.2989,-8.319,-8.3201,-8.328,-8.3288,-8.3306,-8.3309,-8.3635,-8.3638,-8.3737,0,0,0,-8.2839,-8.2851,-8.2896,-8.2899,-8.3007,-8.3103,-8.3013,-8.3189,-8.3209,-8.3287,-8.3306,-8.3311,-8.3633,-8.3637,-8.373,-8.3782,0,0,0,-8.2822,-8.2849,-8.2877,-8.2899,-8.2974,-8.31,-8.3121,-8.3193,-8.3214,-8.3303,-8.3312,-8.3632,-8.3636,-8.3723,-8.3772,-8.3873,0,0,0,-8.2804,-8.2959,-8.2879,-8.3054,-8.2972,-8.3161,-8.312,-8.3259,-8.3347,-8.3307,-8.3633,-8.3638,-8.3721,-8.3765,-8.3866,-8.3959,-8.3998,0,0,-8.3001,-8.2983,-8.3086,-8.3019,-8.3224,-8.3134,-8.3352,-8.3427,-8.343,-8.3568,-8.3576,-8.3732,-8.3771,-8.3872,-8.4216,-8.4247,0,0,0,-8.3149,-8.3223,-8.3277,-8.3363,-8.3428,-8.3487,-8.3529,-8.3557,-8.3675,-8.3503,-8.3796,-8.3818,-8.3877,-8.3921,-8.3948,-8.3998,-8.3658,-8.3658,-8.3657,-8.3429,-8.343,-8.3601,-8.3623,-8.3707,-8.3751,-8.3819,-8.3863,-8.3835,-8.3904,-8.3945,-8.4155,-8.4207,-8.4227,-8.4279,-8.3994,-8.3994,-8.3995,-8.3995,-8.3717,-8.3823,-8.3787,-8.394,-8.3939,-8.4066,-8.4115,-8.4091,-8.4208,-8.4123,-8.4175,-8.4082,-8.4261,-8.4307,-8.4002,-8.4001,-8.4,-8.4,-8.3999,-8.3901,-8.3952,-8.3987,-8.4115,-8.4212,-8.4227,-8.4343,-8.4336,-8.433,-8.4381,-8.4424,-8.4423,-8.442,-8.4402,-8.4403,-8.4404,-8.4405,-8.4405,-8.4406,-8.4077,-8.4114,-8.4215,-8.43,-8.4356,-8.4429,-8.4477,-8.4531,-8.4588,-8.4574,-8.4574,-8.4539,-8.4279,-8.4214,-8.4417,-8.4415,-8.4413,-8.4412,-8.4412,-8.4369,-8.4304,-8.4459,-8.4516,-8.4616,-8.4714,-8.4706,-8.4817,-8.486,-8.4917,-8.4873,-8.4682,-8.4661,-8.464,-8.4586,-8.4872,-8.4872,-8.4872,-8.4872,-8.4525,-8.4515,-8.4675,-8.4767,-8.4856,-8.4865,-8.5039,-8.5079,-8.5107,-8.5134,-8.5092,-8.502,-8.4998,-8.499,-8.4961,-8.4911,-8.5274,-8.5274,-8.5275,-8.4705,-8.4704,-8.4855,-8.4888,-8.4967,-8.5033,-8.5197,-8.5302,-8.532,-8.5291,-8.5155,-8.5138,-8.5022,-8.4984,-8.495,-8.4905,-8.4813,0,0]}]]